This is the latest recevied weather packets stored in our database for station/object KO5MO-10. If no packets are shown the sender has not sent any weather packets the latest 1 day(s).
| Time | Temp. | Humidity | Pressure | Rain* | Wind** | Luminosity | Snow |
|---|---|---|---|---|---|---|---|
| 1777849872 | 38.33° C | 11% | 1002.4 hPa | - | - | - | - |
| 1777848972 | 38.33° C | 11% | 1002.6 hPa | - | - | - | - |
| 1777848072 | 39.44° C | 12% | 1002.9 hPa | - | - | - | - |
| 1777847172 | 38.89° C | 11% | 1003 hPa | - | - | - | - |
| 1777846271 | 38.89° C | 12% | 1003.2 hPa | - | - | - | - |
| 1777845371 | 39.44° C | 12% | 1003.6 hPa | - | - | - | - |
| 1777844471 | 38.33° C | 12% | 1003.8 hPa | - | - | - | - |
| 1777843571 | 38.33° C | 12% | 1004 hPa | - | - | - | - |
| 1777842671 | 38.33° C | 12% | 1004.4 hPa | - | - | - | - |
| 1777841771 | 38.33° C | 13% | 1004.6 hPa | - | - | - | - |
| 1777840870 | 37.78° C | 13% | 1005 hPa | - | - | - | - |
| 1777839970 | 37.78° C | 14% | 1005.2 hPa | - | - | - | - |
| 1777839070 | 38.33° C | 15% | 1005.2 hPa | - | - | - | - |
| 1777838170 | 37.78° C | 15% | 1005.5 hPa | - | - | - | - |
| 1777837270 | 37.22° C | 16% | 1005.8 hPa | - | - | - | - |
| 1777836369 | 36.67° C | 17% | 1006.2 hPa | - | - | - | - |
| 1777835469 | 36.11° C | 17% | 1006.4 hPa | - | - | - | - |
| 1777834569 | 35.56° C | 18% | 1006.6 hPa | - | - | - | - |
| 1777833669 | 35.56° C | 18% | 1006.9 hPa | - | - | - | - |
| 1777832769 | 35° C | 18% | 1007.2 hPa | - | - | - | - |
| 1777831868 | 33.89° C | 19% | 1007.4 hPa | - | - | - | - |
* Rain since midnight (hover to see other rain measurements)
** Current wind speed in m/s (hover to see current wind gust speed)